Weather History for Hong Kong, HK

Change the Weather History Date:

Saturday, November 17, 2012

  Actual Average Record
Temperature  
Mean Temperature 70 °F -  
Max Temperature 75 °F 71 °F 84 °F (1998)
Min Temperature 64 °F 61 °F 57 °F (2001)
Cooling Degree Days 4    
Growing Degree Days 20 (Base 50)    
Moisture  
Dew Point 61 °F    
Average Humidity 75    
Maximum Humidity 94    
Minimum Humidity 53    
Precipitation  
Precipitation 0.00 in - - ()
Sea Level Pressure  
Sea Level Pressure 30.01 in    
Wind  
Wind Speed 11 mph ()    
Max Wind Speed 26 mph    
Max Gust Speed -    
Visibility 5.9 miles    
Events Rain    
Averages and records for this station are not official NWS values.
T = Trace of Precipitation, MM = Missing Value Source: Averaged Metar Reports

Daily Weather History Graph

Daily Weather History Graph

Search for Another Location

Airport:

Trip Planner

Search our weather history database for the weather conditions in past years. The results will help you decide how hot, cold, wet, or windy it might be!

Date:

Astronomy

Nov. 17, 2012 Rise Set
Actual Time 6:37 AM HKT 5:40 PM HKT
Civil Twilight 6:14 AM HKT 6:04 PM HKT
Nautical Twilight 5:47 AM HKT 6:31 PM HKT
Astronomical Twilight 5:20 AM HKT 6:58 PM HKT
Moon 9:51 AM HKT 9:12 PM HKT
Length of Visible Light 11h 49m
Length of Day
11h 02m
Waxing Crescent, 15% of the Moon is Illuminated
Nov 17
Waxing Crescent
Nov 20
First Quarter
Nov 28
Full
Dec 6
Last Quarter
Dec 13
New

Hourly Weather History & Observations

Time (HKT) Temp. Dew Point Humidity Pressure Visibility Wind Dir Wind Speed Gust Speed Precip Events Conditions
12:00 AM 75.2 °F 69.8 °F 83% 30.01 in 6.2 mi NNE 6.9 mph - N/A Rain Light Rain
12:30 AM 73.4 °F 69.8 °F 88% 30.01 in 6.2 mi North 17.3 mph - N/A Rain Light Rain
12:49 AM 71.6 °F 69.8 °F 94% 30.01 in - North 17.3 mph - N/A Rain Light Rain
1:00 AM 71.6 °F 69.8 °F 94% 30.01 in - North 19.6 mph - N/A Rain Rain
1:22 AM 71.6 °F 69.8 °F 94% 30.01 in 3.1 mi North 20.7 mph - N/A Rain Rain
1:30 AM 71.6 °F 68.0 °F 88% 30.01 in 3.7 mi North 26.5 mph - N/A Rain Rain
2:00 AM 69.8 °F 66.2 °F 88% 30.01 in 6.2 mi NNE 24.2 mph - N/A Rain Rain
2:30 AM 68.0 °F 66.2 °F 94% 30.01 in 6.2 mi ENE 13.8 mph - N/A Rain Light Rain
3:00 AM 68.0 °F 62.6 °F 83% 30.01 in 6.2 mi East 10.4 mph - N/A Rain Light Rain
3:30 AM 68.0 °F 62.6 °F 83% 29.98 in 6.2 mi East 11.5 mph - N/A Rain Light Rain
4:00 AM 68.0 °F 60.8 °F 78% 29.98 in 6.2 mi ENE 10.4 mph - N/A Rain Light Rain
4:13 AM 69.8 °F 60.8 °F 73% 29.98 in 6.2 mi North 12.7 mph - N/A Rain Light Rain
4:30 AM 69.8 °F 59.0 °F 68% 29.98 in 6.2 mi North 11.5 mph - N/A Rain Light Rain
5:00 AM 69.8 °F 60.8 °F 73% 29.98 in 6.2 mi ENE 13.8 mph - N/A Rain Light Rain
5:09 AM 69.8 °F 60.8 °F 73% 29.98 in 6.2 mi NNW 11.5 mph - N/A Rain Light Rain
5:30 AM 68.0 °F 60.8 °F 78% 29.98 in 6.2 mi North 16.1 mph - N/A Rain Light Rain
6:00 AM 68.0 °F 60.8 °F 78% 29.98 in 6.2 mi NNE 9.2 mph - N/A Rain Light Rain
6:30 AM 68.0 °F 60.8 °F 78% 30.01 in 6.2 mi North 8.1 mph - N/A   Scattered Clouds
7:00 AM 68.0 °F 60.8 °F 78% 30.01 in 6.2 mi North 9.2 mph - N/A   Scattered Clouds
7:30 AM 68.0 °F 59.0 °F 73% 30.01 in 6.2 mi NE 4.6 mph - N/A   Scattered Clouds
7:47 AM 68.0 °F 60.8 °F 78% 30.04 in 6.2 mi North 11.5 mph - N/A   Scattered Clouds
8:00 AM 68.0 °F 60.8 °F 78% 30.04 in 6.2 mi North 9.2 mph - N/A   Scattered Clouds
8:30 AM 68.0 °F 59.0 °F 73% 30.04 in 6.2 mi North 10.4 mph - N/A   Partly Cloudy
9:00 AM 68.0 °F 59.0 °F 73% 30.04 in 6.2 mi North 9.2 mph - N/A   Partly Cloudy
9:30 AM 68.0 °F 59.0 °F 73% 30.04 in 6.2 mi North 9.2 mph - N/A   Partly Cloudy
10:00 AM 69.8 °F 55.4 °F 60% 30.04 in 6.2 mi NE 11.5 mph - N/A   Partly Cloudy
10:30 AM 69.8 °F 55.4 °F 60% 30.06 in 6.2 mi North 15.0 mph - N/A   Partly Cloudy
11:00 AM 69.8 °F 55.4 °F 60% 30.06 in 6.2 mi North 12.7 mph - N/A   Partly Cloudy
11:30 AM 69.8 °F 55.4 °F 60% 30.04 in 6.2 mi North 11.5 mph - N/A   Partly Cloudy
12:00 PM 69.8 °F 57.2 °F 64% 30.04 in 6.2 mi North 8.1 mph - N/A   Partly Cloudy
12:30 PM 69.8 °F 55.4 °F 60% 30.01 in 6.2 mi ENE 8.1 mph - N/A   Partly Cloudy
1:00 PM 71.6 °F 55.4 °F 57% 30.01 in 6.2 mi ENE 6.9 mph - N/A   Partly Cloudy
1:30 PM 71.6 °F 55.4 °F 57% 30.01 in - NE 6.9 mph - N/A   Clear
2:00 PM 71.6 °F 55.4 °F 57% 29.98 in - ENE 8.1 mph - N/A   Clear
2:30 PM 73.4 °F 55.4 °F 53% 29.98 in 6.2 mi ENE 6.9 mph - N/A   Scattered Clouds
3:00 PM 71.6 °F 55.4 °F 57% 29.98 in 6.2 mi NNE 3.5 mph - N/A   Partly Cloudy
3:30 PM 71.6 °F 55.4 °F 57% 29.98 in 6.2 mi NE 5.8 mph - N/A   Partly Cloudy
4:00 PM 71.6 °F 55.4 °F 57% 29.98 in 6.2 mi NE 9.2 mph - N/A   Partly Cloudy
4:30 PM 71.6 °F 57.2 °F 60% 29.98 in 6.2 mi NNE 4.6 mph - N/A   Partly Cloudy
5:00 PM 69.8 °F 59.0 °F 68% 30.01 in 6.2 mi NNE 4.6 mph - N/A Rain Light Rain
5:30 PM 71.6 °F 59.0 °F 64% 29.98 in 6.2 mi ENE 4.6 mph - N/A   Partly Cloudy
6:00 PM 68.0 °F 60.8 °F 78% 30.01 in 5.0 mi South 5.8 mph - N/A Rain Light Rain
6:30 PM 66.2 °F 62.6 °F 88% 30.01 in 5.6 mi SE 6.9 mph - N/A Rain Light Rain
7:00 PM 66.2 °F 62.6 °F 88% 30.01 in 6.2 mi SE 5.8 mph - N/A   Scattered Clouds
7:30 PM 66.2 °F 60.8 °F 83% 30.01 in 6.2 mi SSE 4.6 mph - N/A   Scattered Clouds
8:00 PM 66.2 °F 62.6 °F 88% 30.04 in 6.2 mi ENE 5.8 mph - N/A Rain Light Rain
8:30 PM 68.0 °F 60.8 °F 78% 30.04 in 6.2 mi East 4.6 mph - N/A Rain Light Rain
9:00 PM 66.2 °F 60.8 °F 83% 30.06 in 6.2 mi North 8.1 mph - N/A   Scattered Clouds
9:30 PM 66.2 °F 60.8 °F 83% 30.04 in 5.0 mi East 4.6 mph - N/A Rain Light Rain
10:00 PM 66.2 °F 60.8 °F 83% 30.06 in 6.2 mi East 4.6 mph - N/A Rain Light Rain
10:30 PM 64.4 °F 60.8 °F 88% 30.06 in 5.6 mi East 4.6 mph - N/A Rain Light Rain
11:00 PM 64.4 °F 62.6 °F 94% 30.04 in 4.3 mi Variable 4.6 mph - N/A Rain Light Rain
11:30 PM 64.4 °F 62.6 °F 94% 30.04 in 5.0 mi ENE 3.5 mph - N/A Rain Light Rain